Simultaneous Nadir Overpasses (SNOs) Predictions

Prediction of SNOs between GOES-16 and LANDSAT-8 Satellite Orbit:

Table of predicted SNOs for the next 14.0 days since TLE Epoch: 2/1/2020
Index Date Time (GOES-16) GOES-16 Lat,Lon LANDSAT-8 Lat,Lon Distance(km) Time Diff (sec)
1 02/01/2020 15:24:52 -0.02, -75.21 0.63, -78.34 355.36 80
2 02/03/2020 15:12:40 -0.02, -75.21 -0.01, -75.38 19.00 80
3 02/05/2020 15:03:08 -0.02, -75.21 -0.64, -72.42 317.85 80
4 02/06/2020 03:21:52 0.03, -75.21 -0.46, -77.62 273.35 80
5 02/08/2020 03:12:19 0.03, -75.21 0.12, -74.65 63.74 80
6 02/10/2020 03:00:07 0.02, -75.22 0.77, -71.69 401.28 80
7 02/10/2020 15:18:43 -0.03, -75.23 0.29, -76.86 184.07 80
8 02/12/2020 15:09:10 -0.03, -75.25 -0.30, -73.89 154.43 80
9 02/13/2020 03:27:54 0.03, -75.25 -0.80, -79.08 436.10 80
10 02/14/2020 14:56:58 -0.03, -75.28 -0.95, -70.94 493.42 80




NCC Satellite Simultaneous Nadir Overpasses (SNOs) Prediction Service
